Data No, UTC Date,UTC Time,Latitude,Longitude,Course(deg),Temp(degC),Sal(psu)
505,2020/9/3,8:24,42-36.85N,141-37.03E,210,21.397,32.2536
506,2020/9/3,8:25,42-36.62N,141-36.89E,197,21.6,32.2679
507,2020/9/3,8:26,42-36.36N,141-36.90E,173,21.716,32.2655
508,2020/9/3,8:27,42-36.15N,141-37.03E,146,21.597,32.2579
509,2020/9/3,8:28,42-35.95N,141-37.24E,140,21.557,32.4972
510,2020/9/3,8:29,42-35.77N,141-37.48E,130,21.542,32.6802
511,2020/9/3,8:30,42-35.62N,141-37.76E,122,21.529,32.8564
512,2020/9/3,8:31,42-35.48N,141-38.07E,121,21.476,32.9184
513,2020/9/3,8:32,42-35.35N,141-38.37E,121,21.415,32.9722
514,2020/9/3,8:33,42-35.21N,141-38.69E,122,21.426,33.1176
515,2020/9/3,8:34,42-35.05N,141-39.01E,123,21.42,33.2117
516,2020/9/3,8:35,42-34.90N,141-39.32E,123,21.418,33.2509
517,2020/9/3,8:36,42-34.73N,141-39.65E,123,21.399,33.2591
518,2020/9/3,8:37,42-34.58N,141-39.98E,123,21.386,33.2764
519,2020/9/3,8:38,42-34.42N,141-40.31E,123,21.389,33.2985
520,2020/9/3,8:39,42-34.26N,141-40.65E,123,21.349,33.3078
521,2020/9/3,8:40,42-34.10N,141-40.97E,124,21.266,33.3102
522,2020/9/3,8:41,42-33.92N,141-41.31E,125,21.223,33.357
523,2020/9/3,8:42,42-33.75N,141-41.63E,125,21.208,33.3844
524,2020/9/3,8:43,42-33.55N,141-42.01E,126,21.226,33.4136
525,2020/9/3,8:44,42-33.36N,141-42.35E,126,21.226,33.4229
526,2020/9/3,8:45,42-33.18N,141-42.68E,127,21.181,33.4357
527,2020/9/3,8:46,42-33.02N,141-42.98E,127,21.159,33.4371
528,2020/9/3,8:47,42-32.83N,141-43.30E,127,21.127,33.4659
529,2020/9/3,8:48,42-32.65N,141-43.65E,126,21.126,33.4782
530,2020/9/3,8:49,42-32.43N,141-44.05E,126,21.153,33.494
531,2020/9/3,8:50,42-32.24N,141-44.39E,126,21.148,33.5036
532,2020/9/3,8:51,42-32.05N,141-44.74E,126,21.121,33.5082
533,2020/9/3,8:52,42-31.86N,141-45.10E,126,21.026,33.506
534,2020/9/3,8:53,42-31.69N,141-45.41E,126,20.864,33.5171
535,2020/9/3,8:54,42-31.49N,141-45.76E,126,20.764,33.5369
536,2020/9/3,8:55,42-31.30N,141-46.12E,126,20.756,33.5946
537,2020/9/3,8:56,42-31.10N,141-46.47E,127,20.755,33.6098
538,2020/9/3,8:57,42-30.90N,141-46.83E,126,20.76,33.6308
539,2020/9/3,8:58,42-30.70N,141-47.18E,127,20.769,33.6286
540,2020/9/3,8:59,42-30.50N,141-47.54E,128,20.772,33.6165
541,2020/9/3,9:00,42-30.27N,141-47.94E,127,20.778,33.604
542,2020/9/3,9:01,42-30.07N,141-48.29E,127,20.784,33.5993
543,2020/9/3,9:02,42-29.87N,141-48.65E,127,20.802,33.5838
544,2020/9/3,9:03,42-29.67N,141-49.00E,127,20.834,33.5854
545,2020/9/3,9:04,42-29.47N,141-49.36E,126,20.789,33.5802
546,2020/9/3,9:05,42-29.30N,141-49.67E,127,20.826,33.5921
547,2020/9/3,9:06,42-29.10N,141-50.02E,127,20.795,33.6053
548,2020/9/3,9:07,42-28.90N,141-50.37E,127,20.812,33.6197
549,2020/9/3,9:08,42-28.68N,141-50.75E,127,20.86,33.6164
550,2020/9/3,9:09,42-28.46N,141-51.13E,127,20.907,33.6107
551,2020/9/3,9:10,42-28.26N,141-51.48E,127,20.936,33.5956
552,2020/9/3,9:11,42-28.07N,141-51.83E,127,20.966,33.5765
553,2020/9/3,9:12,42-27.86N,141-52.19E,127,20.996,33.5531
554,2020/9/3,9:13,42-27.66N,141-52.53E,128,21.021,33.5308
555,2020/9/3,9:14,42-27.49N,141-52.83E,127,21.043,33.5162
556,2020/9/3,9:15,42-27.29N,141-53.18E,127,21.062,33.4988
557,2020/9/3,9:16,42-27.07N,141-53.57E,127,21.08,33.4806
558,2020/9/3,9:17,42-26.87N,141-53.93E,127,21.092,33.4697
559,2020/9/3,9:18,42-26.67N,141-54.27E,128,21.098,33.462
560,2020/9/3,9:19,42-26.47N,141-54.63E,127,21.061,33.4596
561,2020/9/3,9:20,42-26.30N,141-54.91E,127,21.008,33.4486
562,2020/9/3,9:21,42-26.10N,141-55.26E,128,21.005,33.456
563,2020/9/3,9:22,42-25.89N,141-55.60E,129,20.997,33.4761
564,2020/9/3,9:23,42-25.69N,141-55.93E,128,20.986,33.4795
565,2020/9/3,9:24,42-25.49N,141-56.28E,128,20.952,33.4861
566,2020/9/3,9:25,42-25.29N,141-56.62E,128,20.929,33.4821
567,2020/9/3,9:26,42-25.08N,141-56.97E,128,20.987,33.494
568,2020/9/3,9:27,42-24.88N,141-57.32E,128,21.019,33.5156
569,2020/9/3,9:28,42-24.68N,141-57.66E,127,21.23,33.5713
570,2020/9/3,9:29,42-24.48N,141-58.01E,127,21.378,33.5754
571,2020/9/3,9:30,42-24.29N,141-58.35E,127,21.528,33.577
572,2020/9/3,9:31,42-24.09N,141-58.69E,127,21.644,33.5609
573,2020/9/3,9:32,42-23.89N,141-59.05E,127,21.764,33.5444
574,2020/9/3,9:33,42-23.70N,141-59.38E,128,21.842,33.5227
575,2020/9/3,9:34,42-23.49N,141-59.73E,127,21.89,33.5132
576,2020/9/3,9:35,42-23.30N,142-00.07E,128,21.929,33.4986
577,2020/9/3,9:36,42-23.10N,142-00.41E,127,21.946,33.4951
578,2020/9/3,9:37,42-22.90N,142-00.76E,128,21.919,33.4821
579,2020/9/3,9:38,42-22.70N,142-01.10E,128,21.87,33.4841
580,2020/9/3,9:39,42-22.49N,142-01.45E,128,21.833,33.4812
581,2020/9/3,9:40,42-22.30N,142-01.79E,128,21.902,33.4845
582,2020/9/3,9:41,42-22.09N,142-02.14E,127,21.974,33.4979
583,2020/9/3,9:42,42-21.88N,142-02.50E,128,21.953,33.5242
584,2020/9/3,9:43,42-21.66N,142-02.87E,127,21.95,33.5187
585,2020/9/3,9:44,42-21.45N,142-03.22E,128,21.939,33.5292
586,2020/9/3,9:45,42-21.26N,142-03.55E,128,21.93,33.5256
587,2020/9/3,9:46,42-21.06N,142-03.90E,128,21.91,33.5327
588,2020/9/3,9:47,42-20.86N,142-04.25E,127,21.882,33.536
589,2020/9/3,9:48,42-20.66N,142-04.59E,127,21.863,33.5289
590,2020/9/3,9:49,42-20.49N,142-04.89E,127,21.82,33.5337
591,2020/9/3,9:50,42-20.30N,142-05.23E,127,21.756,33.5379
592,2020/9/3,9:51,42-20.09N,142-05.59E,127,21.706,33.5436
593,2020/9/3,9:52,42-19.87N,142-05.98E,127,21.627,33.5582
594,2020/9/3,9:53,42-19.67N,142-06.32E,127,21.615,33.5715
595,2020/9/3,9:54,42-19.47N,142-06.66E,127,21.587,33.5664
596,2020/9/3,9:55,42-19.31N,142-06.96E,127,21.583,33.5704
597,2020/9/3,9:56,42-19.11N,142-07.31E,127,21.604,33.5763
598,2020/9/3,9:57,42-18.91N,142-07.66E,127,21.622,33.5757
599,2020/9/3,9:58,42-18.72N,142-08.00E,127,21.62,33.5738
600,2020/9/3,9:59,42-18.52N,142-08.36E,127,21.61,33.5619
601,2020/9/3,10:00,42-18.32N,142-08.70E,127,21.627,33.5639
602,2020/9/3,10:01,42-18.13N,142-09.05E,127,21.634,33.562
603,2020/9/3,10:02,42-17.92N,142-09.40E,127,21.627,33.5499
604,2020/9/3,10:03,42-17.71N,142-09.79E,126,21.679,33.5416
605,2020/9/3,10:04,42-17.53N,142-10.11E,126,21.703,33.5445
606,2020/9/3,10:05,42-17.35N,142-10.44E,126,21.704,33.5425
607,2020/9/3,10:06,42-17.16N,142-10.79E,126,21.694,33.5306
608,2020/9/3,10:07,42-16.96N,142-11.15E,126,21.694,33.522
609,2020/9/3,10:08,42-16.76N,142-11.49E,126,21.646,33.5201
610,2020/9/3,10:09,42-16.57N,142-11.85E,126,21.6,33.5161
611,2020/9/3,10:10,42-16.39N,142-12.20E,125,21.62,33.522
612,2020/9/3,10:11,42-16.16N,142-12.61E,125,21.655,33.5204
613,2020/9/3,10:12,42-15.96N,142-12.97E,126,21.666,33.5097
614,2020/9/3,10:13,42-15.79N,142-13.27E,126,21.656,33.5062
615,2020/9/3,10:14,42-15.60N,142-13.62E,126,21.63,33.5078
616,2020/9/3,10:15,42-15.40N,142-13.97E,126,21.608,33.5
617,2020/9/3,10:16,42-15.20N,142-14.33E,126,21.593,33.5113
618,2020/9/3,10:17,42-15.00N,142-14.70E,126,21.573,33.5109
619,2020/9/3,10:18,42-14.81N,142-15.06E,126,21.531,33.5143
620,2020/9/3,10:19,42-14.59N,142-15.45E,126,21.48,33.5091
621,2020/9/3,10:20,42-14.41N,142-15.78E,126,21.512,33.5179
622,2020/9/3,10:21,42-14.21N,142-16.14E,127,21.523,33.5229
623,2020/9/3,10:22,42-14.01N,142-16.50E,126,21.529,33.5209
624,2020/9/3,10:23,42-13.81N,142-16.85E,126,21.519,33.52
625,2020/9/3,10:24,42-13.61N,142-17.21E,126,21.47,33.5253
626,2020/9/3,10:25,42-13.42N,142-17.58E,126,21.313,33.5234
627,2020/9/3,10:26,42-13.22N,142-17.94E,126,21.128,33.5205
628,2020/9/3,10:27,42-13.02N,142-18.31E,125,20.898,33.5406
629,2020/9/3,10:28,42-12.82N,142-18.68E,125,20.72,33.5789
630,2020/9/3,10:29,42-12.63N,142-19.04E,125,20.587,33.5803
631,2020/9/3,10:30,42-12.44N,142-19.40E,125,20.543,33.6008
632,2020/9/3,10:31,42-12.21N,142-19.82E,125,20.546,33.6255
633,2020/9/3,10:32,42-12.01N,142-20.20E,124,20.546,33.6336
634,2020/9/3,10:33,42-11.81N,142-20.57E,125,20.544,33.6424
635,2020/9/3,10:34,42-11.62N,142-20.91E,125,20.535,33.6391
636,2020/9/3,10:35,42-11.43N,142-21.27E,126,20.514,33.6424
637,2020/9/3,10:36,42-11.23N,142-21.65E,125,20.463,33.6426
638,2020/9/3,10:37,42-11.01N,142-22.06E,125,20.466,33.6424
639,2020/9/3,10:38,42-10.82N,142-22.42E,125,20.496,33.6381
640,2020/9/3,10:39,42-10.63N,142-22.77E,125,20.517,33.6416
641,2020/9/3,10:40,42-10.42N,142-23.17E,125,20.492,33.6513
642,2020/9/3,10:41,42-10.24N,142-23.52E,125,20.461,33.6463
643,2020/9/3,10:42,42-10.04N,142-23.90E,125,20.434,33.645
644,2020/9/3,10:43,42-09.85N,142-24.27E,124,20.547,33.6334
645,2020/9/3,10:44,42-09.66N,142-24.63E,125,20.612,33.6348
646,2020/9/3,10:45,42-09.46N,142-25.01E,124,20.671,33.639
647,2020/9/3,10:46,42-09.28N,142-25.39E,122,20.725,33.6399
648,2020/9/3,10:47,42-09.11N,142-25.79E,120,20.764,33.6349
649,2020/9/3,10:48,42-08.94N,142-26.17E,119,20.811,33.6361
650,2020/9/3,10:49,42-08.78N,142-26.56E,120,20.83,33.6345
651,2020/9/3,10:50,42-08.61N,142-26.96E,119,20.861,33.6292
652,2020/9/3,10:51,42-08.44N,142-27.34E,120,20.9,33.6314
653,2020/9/3,10:52,42-08.28N,142-27.74E,119,20.925,33.6293
654,2020/9/3,10:53,42-08.11N,142-28.12E,119,20.944,33.6265
655,2020/9/3,10:54,42-07.95N,142-28.52E,119,20.967,33.6202
656,2020/9/3,10:55,42-07.78N,142-28.92E,119,20.989,33.6243
657,2020/9/3,10:56,42-07.61N,142-29.30E,119,20.99,33.6218
658,2020/9/3,10:57,42-07.44N,142-29.71E,120,20.999,33.6218
659,2020/9/3,10:58,42-07.27N,142-30.10E,120,21.015,33.6152
660,2020/9/3,10:59,42-07.09N,142-30.49E,120,21.025,33.6196
661,2020/9/3,11:00,42-06.92N,142-30.89E,120,21.039,33.6157
662,2020/9/3,11:01,42-06.75N,142-31.28E,120,21.038,33.62
663,2020/9/3,11:02,42-06.57N,142-31.69E,120,21.015,33.6255
664,2020/9/3,11:03,42-06.39N,142-32.07E,120,21.008,33.6297
665,2020/9/3,11:04,42-06.21N,142-32.47E,121,21.019,33.6288
666,2020/9/3,11:05,42-06.03N,142-32.87E,121,21.021,33.6227
667,2020/9/3,11:06,42-05.86N,142-33.25E,121,20.997,33.6264
668,2020/9/3,11:07,42-05.67N,142-33.66E,121,20.94,33.6189
669,2020/9/3,11:08,42-05.50N,142-34.05E,120,20.895,33.6205
670,2020/9/3,11:09,42-05.32N,142-34.45E,121,20.893,33.5961
671,2020/9/3,11:10,42-05.14N,142-34.86E,120,20.901,33.5991
672,2020/9/3,11:11,42-04.96N,142-35.26E,121,20.897,33.5927
673,2020/9/3,11:12,42-04.77N,142-35.67E,121,20.879,33.6024
674,2020/9/3,11:13,42-04.60N,142-36.07E,120,20.844,33.5946
675,2020/9/3,11:14,42-04.42N,142-36.48E,120,20.78,33.5945
676,2020/9/3,11:15,42-04.24N,142-36.89E,120,20.607,33.5871
677,2020/9/3,11:16,42-04.06N,142-37.30E,120,20.562,33.5772
678,2020/9/3,11:17,42-03.90N,142-37.66E,120,20.554,33.5641
679,2020/9/3,11:18,42-03.72N,142-38.06E,120,20.571,33.5695
680,2020/9/3,11:19,42-03.52N,142-38.53E,120,20.584,33.5679
681,2020/9/3,11:20,42-03.33N,142-38.95E,120,20.597,33.566
682,2020/9/3,11:21,42-03.16N,142-39.36E,119,20.608,33.5575
683,2020/9/3,11:22,42-02.98N,142-39.78E,120,20.632,33.5661
684,2020/9/3,11:23,42-02.83N,142-40.15E,120,20.651,33.5585
685,2020/9/3,11:24,42-02.65N,142-40.55E,119,20.679,33.5593
686,2020/9/3,11:25,42-02.47N,142-40.96E,119,20.722,33.5639
687,2020/9/3,11:26,42-02.30N,142-41.36E,120,20.767,33.5728
688,2020/9/3,11:27,42-02.09N,142-41.84E,120,20.819,33.5716
689,2020/9/3,11:28,42-01.94N,142-42.18E,120,20.853,33.5717
690,2020/9/3,11:29,42-01.77N,142-42.59E,119,20.891,33.5734
691,2020/9/3,11:30,42-01.59N,142-43.01E,119,20.919,33.5678
692,2020/9/3,11:31,42-01.41N,142-43.41E,120,20.943,33.569
693,2020/9/3,11:32,42-01.22N,142-43.82E,120,20.961,33.563
694,2020/9/3,11:33,42-01.05N,142-44.23E,120,20.994,33.558
695,2020/9/3,11:34,42-00.87N,142-44.64E,120,21.015,33.5616
696,2020/9/3,11:35,42-00.68N,142-45.06E,120,21.042,33.5557
697,2020/9/3,11:36,42-00.50N,142-45.46E,120,21.058,33.5524
698,2020/9/3,11:37,42-00.30N,142-45.86E,124,21.075,33.5586
699,2020/9/3,11:38,42-00.10N,142-46.25E,125,21.081,33.5645
700,2020/9/3,11:39,41-59.89N,142-46.64E,125,21.095,33.5597
701,2020/9/3,11:40,41-59.68N,142-47.03E,126,21.106,33.5583
702,2020/9/3,11:41,41-59.47N,142-47.42E,125,21.12,33.5603
703,2020/9/3,11:42,41-59.26N,142-47.81E,126,21.132,33.5555
704,2020/9/3,11:43,41-59.04N,142-48.20E,125,21.147,33.5582
705,2020/9/3,11:44,41-58.83N,142-48.60E,125,21.16,33.5525
706,2020/9/3,11:45,41-58.62N,142-48.99E,125,21.171,33.5504
707,2020/9/3,11:46,41-58.41N,142-49.38E,126,21.188,33.5535
708,2020/9/3,11:47,41-58.20N,142-49.76E,126,21.2,33.5488
709,2020/9/3,11:48,41-57.99N,142-50.15E,125,21.208,33.5487
710,2020/9/3,11:49,41-57.78N,142-50.53E,126,21.21,33.5538
711,2020/9/3,11:50,41-57.57N,142-50.92E,126,21.213,33.5543
712,2020/9/3,11:51,41-57.36N,142-51.30E,126,21.219,33.553
713,2020/9/3,11:52,41-57.11N,142-51.75E,126,21.224,33.5428
714,2020/9/3,11:53,41-56.93N,142-52.08E,126,21.224,33.5445
715,2020/9/3,11:54,41-56.74N,142-52.49E,121,21.23,33.5467
716,2020/9/3,11:55,41-56.55N,142-52.91E,120,21.226,33.5411
717,2020/9/3,11:56,41-56.35N,142-53.37E,119,21.219,33.5368
718,2020/9/3,11:57,41-56.17N,142-53.80E,119,21.179,33.5396
719,2020/9/3,11:58,41-55.99N,142-54.22E,119,21.14,33.5349
720,2020/9/3,11:59,41-55.81N,142-54.63E,119,21.107,33.5359
721,2020/9/3,12:00,41-55.63N,142-55.06E,119,21.105,33.5404
722,2020/9/3,12:01,41-55.46N,142-55.46E,119,21.125,33.5501
723,2020/9/3,12:02,41-55.28N,142-55.88E,120,21.127,33.5439
724,2020/9/3,12:03,41-55.09N,142-56.30E,120,21.126,33.5495
725,2020/9/3,12:04,41-54.91N,142-56.71E,119,21.113,33.5466
726,2020/9/3,12:05,41-54.76N,142-57.14E,114,21.126,33.5516
727,2020/9/3,12:06,41-54.63N,142-57.58E,111,21.144,33.5629
728,2020/9/3,12:07,41-54.50N,142-58.03E,111,21.157,33.5616
729,2020/9/3,12:08,41-54.37N,142-58.48E,109,21.136,33.5554
730,2020/9/3,12:09,41-54.26N,142-58.92E,108,21.142,33.5582
731,2020/9/3,12:10,41-54.14N,142-59.38E,108,21.128,33.5545
732,2020/9/3,12:11,41-54.02N,142-59.81E,112,21.097,33.5521
733,2020/9/3,12:12,41-53.87N,143-00.24E,114,21.061,33.5581
734,2020/9/3,12:13,41-53.72N,143-00.68E,114,21.054,33.5656
735,2020/9/3,12:14,41-53.58N,143-01.11E,114,21.159,33.5557
736,2020/9/3,12:15,41-53.43N,143-01.53E,114,21.258,33.56
737,2020/9/3,12:16,41-53.29N,143-01.95E,114,21.317,33.5565
738,2020/9/3,12:17,41-53.14N,143-02.38E,114,21.36,33.5494
739,2020/9/3,12:18,41-52.99N,143-02.82E,114,21.401,33.5432
740,2020/9/3,12:19,41-52.85N,143-03.24E,114,21.433,33.5368
741,2020/9/3,12:20,41-52.70N,143-03.67E,114,21.451,33.5335
742,2020/9/3,12:21,41-52.55N,143-04.10E,114,21.455,33.5326
743,2020/9/3,12:22,41-52.40N,143-04.53E,114,21.454,33.5321
744,2020/9/3,12:23,41-52.27N,143-04.91E,114,21.46,33.5319
745,2020/9/3,12:24,41-52.13N,143-05.34E,114,21.465,33.5371
746,2020/9/3,12:25,41-51.98N,143-05.78E,114,21.465,33.5278
747,2020/9/3,12:26,41-51.84N,143-06.21E,114,21.468,33.5275
748,2020/9/3,12:27,41-51.69N,143-06.64E,114,21.465,33.5227
749,2020/9/3,12:28,41-51.53N,143-07.09E,114,21.453,33.5247
750,2020/9/3,12:29,41-51.38N,143-07.52E,115,21.444,33.5222
751,2020/9/3,12:30,41-51.22N,143-07.96E,115,21.437,33.518
752,2020/9/3,12:31,41-51.07N,143-08.39E,114,21.431,33.5189
753,2020/9/3,12:32,41-50.92N,143-08.82E,115,21.425,33.5246
754,2020/9/3,12:33,41-50.77N,143-09.27E,112,21.417,33.5208
755,2020/9/3,12:34,41-50.66N,143-09.72E,106,21.413,33.5204
756,2020/9/3,12:35,41-50.57N,143-10.19E,103,21.406,33.5253
757,2020/9/3,12:36,41-50.50N,143-10.64E,101,21.39,33.5318
758,2020/9/3,12:37,41-50.43N,143-11.10E,101,21.387,33.5258
759,2020/9/3,12:38,41-50.35N,143-11.64E,100,21.381,33.5332
760,2020/9/3,12:39,41-50.30N,143-12.11E,99,21.378,33.5305
761,2020/9/3,12:40,41-50.23N,143-12.58E,98,21.369,33.5304
762,2020/9/3,12:41,41-50.21N,143-13.05E,92,21.354,33.5299
763,2020/9/3,12:42,41-50.20N,143-13.45E,92,21.352,33.5286
764,2020/9/3,12:43,41-50.19N,143-13.93E,91,21.353,33.5264
765,2020/9/3,12:44,41-50.18N,143-14.38E,91,21.34,33.5299
766,2020/9/3,12:45,41-50.18N,143-14.85E,90,21.287,33.5251
767,2020/9/3,12:46,41-50.18N,143-15.36E,90,21.084,33.5233
768,2020/9/3,12:47,41-50.18N,143-15.83E,89,20.706,33.5123
769,2020/9/3,12:48,41-50.18N,143-16.31E,89,20.161,33.47
770,2020/9/3,12:49,41-50.17N,143-16.72E,90,19.367,33.3816
771,2020/9/3,12:50,41-50.17N,143-17.19E,91,19.241,33.2189
772,2020/9/3,12:51,41-50.16N,143-17.65E,90,19.194,33.0885
773,2020/9/3,12:52,41-50.19N,143-18.12E,82,18.859,33.1559
774,2020/9/3,12:53,41-50.27N,143-18.57E,74,18.636,33.1574
775,2020/9/3,12:54,41-50.40N,143-18.99E,65,18.698,33.1595
776,2020/9/3,12:55,41-50.61N,143-19.44E,55,18.736,33.1993
777,2020/9/3,12:56,41-50.80N,143-19.79E,52,18.656,33.1898
778,2020/9/3,12:57,41-51.08N,143-20.14E,44,18.314,33.1903
779,2020/9/3,12:58,41-51.30N,143-20.44E,41,18.262,33.1881
780,2020/9/3,12:59,41-51.55N,143-20.75E,41,18.286,33.2105
781,2020/9/3,13:00,41-51.82N,143-21.06E,40,18.281,33.2245
782,2020/9/3,13:01,41-52.07N,143-21.35E,41,17.996,33.2202
783,2020/9/3,13:02,41-52.34N,143-21.64E,37,18.211,33.2133
784,2020/9/3,13:03,41-52.63N,143-21.91E,34,18.331,33.235
785,2020/9/3,13:04,41-52.91N,143-22.18E,35,18.331,33.2282
786,2020/9/3,13:05,41-53.20N,143-22.46E,34,18.382,33.2308
787,2020/9/3,13:06,41-53.49N,143-22.72E,34,18.329,33.2219
788,2020/9/3,13:07,41-53.79N,143-22.99E,35,18.43,33.2169
789,2020/9/3,13:08,41-54.08N,143-23.27E,35,18.408,33.2311
790,2020/9/3,13:09,41-54.36N,143-23.53E,35,18.327,33.2152
791,2020/9/3,13:10,41-54.64N,143-23.79E,35,18.268,33.2149
792,2020/9/3,13:11,41-54.92N,143-24.06E,34,18.188,33.2118
793,2020/9/3,13:12,41-55.24N,143-24.36E,34,18.19,33.2168
794,2020/9/3,13:13,41-55.53N,143-24.63E,34,18.239,33.2326
795,2020/9/3,13:14,41-55.81N,143-24.88E,35,18.29,33.2312
796,2020/9/3,13:15,41-56.10N,143-25.16E,35,18.326,33.2265
797,2020/9/3,13:16,41-56.35N,143-25.39E,34,18.446,33.2078
798,2020/9/3,13:17,41-56.61N,143-25.65E,35,18.527,33.2043
799,2020/9/3,13:18,41-56.88N,143-25.90E,35,18.583,33.2171
800,2020/9/3,13:19,41-57.13N,143-26.14E,34,18.619,33.2235
801,2020/9/3,13:20,41-57.40N,143-26.38E,34,18.704,33.24
802,2020/9/3,13:21,41-57.66N,143-26.62E,34,18.661,33.2342
803,2020/9/3,13:22,41-57.92N,143-26.87E,34,18.654,33.2257
804,2020/9/3,13:23,41-58.18N,143-27.12E,34,18.715,33.2369
805,2020/9/3,13:24,41-58.44N,143-27.35E,34,18.813,33.232
806,2020/9/3,13:25,41-58.71N,143-27.61E,34,18.889,33.2371
807,2020/9/3,13:26,41-58.97N,143-27.85E,34,18.94,33.2287
808,2020/9/3,13:27,41-59.24N,143-28.09E,34,18.928,33.2262
809,2020/9/3,13:28,41-59.51N,143-28.34E,34,18.865,33.2334
810,2020/9/3,13:29,41-59.77N,143-28.58E,34,19.026,33.2302
811,2020/9/3,13:30,42-00.04N,143-28.83E,34,19.134,33.2375
812,2020/9/3,13:31,42-00.30N,143-29.08E,35,19.175,33.2212
813,2020/9/3,13:32,42-00.56N,143-29.32E,34,19.187,33.2183
814,2020/9/3,13:33,42-00.83N,143-29.57E,33,19.391,33.2178
815,2020/9/3,13:34,42-01.09N,143-29.81E,35,19.506,33.2238
816,2020/9/3,13:35,42-01.36N,143-30.06E,34,19.586,33.2
817,2020/9/3,13:36,42-01.62N,143-30.31E,34,19.668,33.1883
818,2020/9/3,13:37,42-01.89N,143-30.55E,33,19.719,33.1825
819,2020/9/3,13:38,42-02.17N,143-30.79E,32,19.788,33.1697
820,2020/9/3,13:39,42-02.43N,143-31.02E,33,19.844,33.1608
821,2020/9/3,13:40,42-02.71N,143-31.26E,33,19.891,33.1464
822,2020/9/3,13:41,42-02.98N,143-31.50E,32,19.945,33.143
823,2020/9/3,13:42,42-03.25N,143-31.73E,32,19.985,33.1349
824,2020/9/3,13:43,42-03.52N,143-31.97E,33,20.023,33.1216
825,2020/9/3,13:44,42-03.79N,143-32.20E,31,20.042,33.1159
826,2020/9/3,13:45,42-04.07N,143-32.44E,33,20.049,33.1095
827,2020/9/3,13:46,42-04.34N,143-32.67E,33,20.038,33.1139
828,2020/9/3,13:47,42-04.61N,143-32.91E,33,20.039,33.1125
829,2020/9/3,13:48,42-04.88N,143-33.16E,33,20.034,33.1106
830,2020/9/3,13:49,42-05.14N,143-33.39E,33,20.029,33.1179
831,2020/9/3,13:50,42-05.42N,143-33.63E,33,20.016,33.1135
832,2020/9/3,13:51,42-05.69N,143-33.86E,32,20.015,33.1209
833,2020/9/3,13:52,42-05.95N,143-34.09E,33,20.015,33.121
834,2020/9/3,13:53,42-06.23N,143-34.34E,32,20.007,33.1209
835,2020/9/3,13:54,42-06.50N,143-34.57E,33,20.011,33.1238
836,2020/9/3,13:55,42-06.77N,143-34.81E,33,19.989,33.1226
837,2020/9/3,13:56,42-07.03N,143-35.05E,33,19.978,33.1267
838,2020/9/3,13:57,42-07.30N,143-35.28E,33,19.976,33.128
839,2020/9/3,13:58,42-07.61N,143-35.57E,34,19.955,33.1253
840,2020/9/3,13:59,42-07.89N,143-35.82E,33,19.935,33.1267
841,2020/9/3,14:00,42-08.11N,143-35.99E,33,19.915,33.1232
842,2020/9/3,14:01,42-08.38N,143-36.23E,33,19.849,33.1252
843,2020/9/3,14:02,42-08.64N,143-36.47E,33,19.792,33.1214
844,2020/9/3,14:03,42-08.93N,143-36.71E,33,19.765,33.1178
845,2020/9/3,14:04,42-09.18N,143-36.95E,33,19.752,33.1134
846,2020/9/3,14:05,42-09.45N,143-37.20E,34,19.749,33.1097
847,2020/9/3,14:06,42-09.71N,143-37.44E,33,19.744,33.1128
848,2020/9/3,14:07,42-09.99N,143-37.68E,34,19.742,33.1102
849,2020/9/3,14:08,42-10.26N,143-37.92E,33,19.745,33.1162
850,2020/9/3,14:09,42-10.52N,143-38.16E,33,19.743,33.11
851,2020/9/3,14:10,42-10.79N,143-38.40E,33,19.719,33.108
852,2020/9/3,14:11,42-11.09N,143-38.67E,33,19.722,33.1068
853,2020/9/3,14:12,42-11.37N,143-38.91E,34,19.767,33.1081
854,2020/9/3,14:13,42-11.64N,143-39.16E,33,19.834,33.1156
855,2020/9/3,14:14,42-11.87N,143-39.36E,33,19.872,33.1251
856,2020/9/3,14:15,42-12.14N,143-39.61E,34,19.915,33.1282
857,2020/9/3,14:16,42-12.45N,143-39.89E,34,19.94,33.1403
858,2020/9/3,14:17,42-12.72N,143-40.13E,34,19.963,33.1429
859,2020/9/3,14:18,42-12.99N,143-40.38E,34,19.993,33.1482
860,2020/9/3,14:19,42-13.26N,143-40.61E,34,20.034,33.1402
861,2020/9/3,14:20,42-13.51N,143-40.84E,34,20.07,33.1402
862,2020/9/3,14:21,42-13.76N,143-41.07E,33,20.096,33.1501
863,2020/9/3,14:22,42-14.03N,143-41.31E,33,20.101,33.1505
864,2020/9/3,14:23,42-14.34N,143-41.59E,34,20.09,33.1507
865,2020/9/3,14:24,42-14.61N,143-41.83E,33,20.113,33.1481
866,2020/9/3,14:25,42-14.88N,143-42.08E,33,20.137,33.1543
867,2020/9/3,14:26,42-15.14N,143-42.32E,34,20.147,33.1534
868,2020/9/3,14:27,42-15.41N,143-42.56E,34,20.167,33.1553
869,2020/9/3,14:28,42-15.69N,143-42.81E,34,20.189,33.156
870,2020/9/3,14:29,42-15.96N,143-43.04E,30,20.202,33.1525
871,2020/9/3,14:30,42-16.25N,143-43.24E,27,20.207,33.1586
872,2020/9/3,14:31,42-16.54N,143-43.44E,27,20.204,33.1558
873,2020/9/3,14:32,42-16.83N,143-43.63E,25,20.198,33.1532
874,2020/9/3,14:33,42-17.12N,143-43.82E,26,20.194,33.1564
875,2020/9/3,14:34,42-17.41N,143-44.01E,26,20.205,33.148
876,2020/9/3,14:35,42-17.70N,143-44.20E,26,20.197,33.1532
877,2020/9/3,14:36,42-17.99N,143-44.39E,26,20.185,33.1518
878,2020/9/3,14:37,42-18.28N,143-44.59E,27,20.188,33.147
879,2020/9/3,14:38,42-18.58N,143-44.79E,26,20.185,33.1469
880,2020/9/3,14:39,42-18.86N,143-44.98E,26,20.184,33.1411
881,2020/9/3,14:40,42-19.15N,143-45.17E,26,20.181,33.1422
882,2020/9/3,14:41,42-19.45N,143-45.36E,26,20.186,33.1381
883,2020/9/3,14:42,42-19.73N,143-45.56E,26,20.189,33.1386
884,2020/9/3,14:43,42-20.03N,143-45.75E,26,20.199,33.1353
885,2020/9/3,14:44,42-20.31N,143-45.95E,28,20.199,33.1323
886,2020/9/3,14:45,42-20.59N,143-46.17E,29,20.188,33.1362
887,2020/9/3,14:46,42-20.88N,143-46.38E,29,20.187,33.1343
888,2020/9/3,14:47,42-21.16N,143-46.59E,28,20.182,33.1382
889,2020/9/3,14:48,42-21.44N,143-46.81E,29,20.175,33.1349
890,2020/9/3,14:49,42-21.72N,143-47.02E,29,20.173,33.1322
891,2020/9/3,14:50,42-22.00N,143-47.23E,29,20.156,33.1379
892,2020/9/3,14:51,42-22.29N,143-47.44E,29,20.154,33.1342
893,2020/9/3,14:52,42-22.57N,143-47.65E,30,20.157,33.1339
894,2020/9/3,14:53,42-22.85N,143-47.87E,29,20.161,33.1302
895,2020/9/3,14:54,42-23.09N,143-48.04E,29,20.158,33.1301
896,2020/9/3,14:55,42-23.37N,143-48.25E,29,20.138,33.137
897,2020/9/3,14:56,42-23.66N,143-48.46E,29,20.121,33.1338
898,2020/9/3,14:57,42-23.93N,143-48.67E,29,20.099,33.1372
899,2020/9/3,14:58,42-24.21N,143-48.88E,29,20.068,33.1344
900,2020/9/3,14:59,42-24.50N,143-49.10E,29,20.035,33.1312
901,2020/9/3,15:00,42-24.81N,143-49.33E,28,20.004,33.1394
902,2020/9/3,15:01,42-25.10N,143-49.54E,29,19.958,33.1361
903,2020/9/3,15:02,42-25.38N,143-49.75E,29,19.926,33.1406
904,2020/9/3,15:03,42-25.67N,143-49.97E,28,19.853,33.1357
905,2020/9/3,15:04,42-25.95N,143-50.17E,28,19.819,33.1392
906,2020/9/3,15:05,42-26.23N,143-50.38E,28,19.813,33.1475
907,2020/9/3,15:06,42-26.52N,143-50.60E,29,19.784,33.1497
908,2020/9/3,15:07,42-26.80N,143-50.80E,28,19.742,33.1595